Weather in Dallas

United States     32°49′10″N   96°43′35″W
temp.,
°C
wind,
m/s
gust,
m/s
humid.,
%
clouds,
%
prec.,
mm/h
press.,
hPa
HPBL,
m
25 may, wed
wed2501:00+17wnw3997100 21.4 1007562
04:00+17sw3995100 5.9 1007600
07:00+17ssw379695 6.0 1009533
10:00+18wnw687984 0.2 1010897
13:00+20wnw696096 0.3 10111564
16:00+22wnw7104741 0.0 10102086
19:00+19wnw6135497 0.0 10111457
22:00+17w2864100 0.0 1012480
26 may, thu
thu2601:00+16sw31168100 0.0 1012439
04:00+16w412636 0.0 1012400
07:00+15w276796 0.0 1013213
10:00+21w354942 0.0 1014453
13:00+26wnw48360 0.0 10131405
16:00+28nw58330 0.0 10122126
19:00+26nnw36420 0.0 1012741
22:00+23ene11510 0.0 101312
27 may, fri
fri2701:00+20se22620 0.0 101427
04:00+19sse22670 0.0 101435
07:00+19s22690 0.0 101637
10:00+25ssw12500 0.0 1016304
13:00+30sse23330 0.0 10151008
16:00+32s34340 0.0 10131596
19:00+31ese34480 0.0 1011418
22:00+25ese411590 0.0 1011341
28 may, sat
sat2801:00+23se412630 0.0 1011333
04:00+22se412670 0.0 1010358
07:00+21sse413760 0.0 1011399
10:00+27ssw511550 0.0 1011645
13:00+33s710340 0.0 10091118
16:00+36s810295 0.0 10061826
19:00+34s611370 0.0 10051293
22:00+29sse615450 0.0 1006601
29 may, sun
sun2901:00+27s718391 0.0 1006658
04:00+24s718535 0.0 1006698
07:00+23s517665 0.0 1007691
10:00+28ssw713490 0.0 1008817
13:00+33s811290 0.0 10071356
16:00+36s811230 0.0 10061891
19:00+34sse611305 0.0 10051781
22:00+29s714375 0.0 1008805